Weather History for Logansport, IN

Change the Weather History Date:

Tuesday, December 11, 2012

  Actual Average Record
Temperature  
Mean Temperature 30 °F -  
Max Temperature 33 °F 42 °F 33 °F (2012)
Min Temperature 28 °F 28 °F 5 °F (2013)
Degree Days  
Heating Degree Days 34    
Moisture  
Dew Point 25 °F    
Average Humidity 79    
Maximum Humidity 93    
Minimum Humidity 64    
Precipitation  
Precipitation 0.00 in - - ()
Sea Level Pressure  
Sea Level Pressure 30.07 in    
Wind  
Wind Speed 11 mph (SW)    
Max Wind Speed 16 mph    
Max Gust Speed 18 mph    
Visibility 10 miles    
Events Snow    
Averages and records for this station are not official NWS values.
T = Trace of Precipitation, MM = Missing Value Source: NWS Daily Summary

Daily Weather History Graph

Daily Weather History Graph

Search for Another Location

Airport:

Trip Planner

Search our weather history database for the weather conditions in past years. The results will help you decide how hot, cold, wet, or windy it might be!

Date:

Astronomy

Dec. 11, 2012 Rise Set
Actual Time 7:59 AM EST 5:18 PM EST
Civil Twilight 7:28 AM EST 5:49 PM EST
Nautical Twilight 6:54 AM EST 6:23 PM EST
Astronomical Twilight 6:21 AM EST 6:56 PM EST
Moon 5:53 AM EST (12/11) 3:57 PM EST (12/11)
Length of Visible Light 10h 20m
Length of Day
9h 18m
Waning Crescent, 4% of the Moon is Illuminated
Dec 11
Waning Crescent
Dec 13
New
Dec 20
First Quarter
Dec 28
Full
Jan 4
Last Quarter

Hourly Weather History & Observations

Time (EST) Temp. Windchill Dew Point Humidity Pressure Visibility Wind Dir Wind Speed Gust Speed Precip Events Conditions
12:15 AM 30.2 °F 21.9 °F 28.4 °F 93% 29.94 in 5.0 mi West 9.2 mph - N/A Snow Light Snow
12:55 AM 30.2 °F 21.9 °F 28.4 °F 93% 29.94 in 7.0 mi West 9.2 mph - N/A   Overcast
1:15 AM 30.2 °F 21.3 °F 28.4 °F 93% 29.94 in 7.0 mi West 10.4 mph - N/A   Overcast
1:55 AM 30.2 °F 21.9 °F 28.4 °F 93% 29.94 in 7.0 mi West 9.2 mph - N/A   Overcast
2:15 AM 30.2 °F 21.3 °F 28.4 °F 93% 29.96 in 7.0 mi West 10.4 mph - N/A   Overcast
2:35 AM 30.2 °F 21.9 °F 28.4 °F 93% 29.97 in 7.0 mi West 9.2 mph - N/A   Overcast
2:55 AM 30.2 °F 20.8 °F 28.4 °F 93% 29.97 in 7.0 mi West 11.5 mph 16.1 mph N/A   Overcast
3:35 AM 30.2 °F 21.3 °F 28.4 °F 93% 29.99 in 7.0 mi WSW 10.4 mph - N/A   Overcast
3:55 AM 30.2 °F 20.2 °F 28.4 °F 93% 29.99 in 7.0 mi West 12.7 mph 17.3 mph N/A   Overcast
4:15 AM 30.2 °F 21.3 °F 28.4 °F 93% 29.99 in 7.0 mi West 10.4 mph - N/A   Overcast
4:35 AM 30.2 °F 21.9 °F 26.6 °F 86% 29.99 in 10.0 mi West 9.2 mph - N/A   Overcast
4:55 AM 30.2 °F 21.3 °F 26.6 °F 86% 29.99 in 10.0 mi West 10.4 mph - N/A   Overcast
5:15 AM 30.2 °F 21.9 °F 26.6 °F 86% 29.99 in 10.0 mi West 9.2 mph - N/A   Overcast
5:35 AM 28.4 °F 17.5 °F 26.6 °F 93% 30.01 in 10.0 mi WSW 13.8 mph - N/A   Overcast
5:55 AM 30.2 °F 21.9 °F 26.6 °F 86% 30.02 in 10.0 mi West 9.2 mph - N/A   Overcast
6:15 AM 28.4 °F 18.0 °F 26.6 °F 93% 30.02 in 10.0 mi WSW 12.7 mph - N/A   Overcast
6:35 AM 28.4 °F 16.6 °F 26.6 °F 93% 30.03 in 10.0 mi West 16.1 mph - N/A   Overcast
6:55 AM 28.4 °F 17.5 °F 26.6 °F 93% 30.03 in 10.0 mi West 13.8 mph - N/A   Overcast
7:15 AM 28.4 °F 17.0 °F 26.6 °F 93% 30.04 in 10.0 mi West 15.0 mph - N/A   Overcast
7:35 AM 28.4 °F 17.0 °F 24.8 °F 86% 30.05 in 10.0 mi WSW 15.0 mph 18.4 mph N/A   Overcast
7:55 AM 28.4 °F 17.5 °F 24.8 °F 86% 30.06 in 10.0 mi WSW 13.8 mph - N/A   Overcast
8:15 AM 28.4 °F 18.5 °F 24.8 °F 86% 30.06 in 10.0 mi WSW 11.5 mph - N/A   Overcast
8:55 AM 28.4 °F 19.7 °F 23.0 °F 80% 30.07 in 10.0 mi West 9.2 mph - N/A   Overcast
9:15 AM 28.4 °F 18.0 °F 23.0 °F 80% 30.08 in 10.0 mi WSW 12.7 mph - N/A   Mostly Cloudy
9:35 AM 30.2 °F 21.3 °F 23.0 °F 75% 30.08 in 10.0 mi WSW 10.4 mph - N/A   Scattered Clouds
9:55 AM 30.2 °F 21.3 °F 23.0 °F 75% 30.08 in 10.0 mi SW 10.4 mph - N/A   Scattered Clouds
10:15 AM 30.2 °F 21.9 °F 23.0 °F 75% 30.09 in 10.0 mi WSW 9.2 mph - N/A   Scattered Clouds
10:55 AM 30.2 °F 21.3 °F 23.0 °F 75% 30.10 in 10.0 mi SW 10.4 mph - N/A   Scattered Clouds
11:15 AM 32.0 °F 23.6 °F 23.0 °F 69% 30.10 in 10.0 mi SW 10.4 mph - N/A   Mostly Cloudy
11:35 AM 32.0 °F 23.0 °F 21.2 °F 64% 30.10 in 10.0 mi WSW 11.5 mph - N/A   Mostly Cloudy
11:55 AM 32.0 °F 22.5 °F 23.0 °F 69% 30.09 in 10.0 mi SW 12.7 mph - N/A   Mostly Cloudy
12:15 PM 30.2 °F 20.2 °F 23.0 °F 75% 30.09 in 10.0 mi WSW 12.7 mph 17.3 mph N/A   Mostly Cloudy
12:35 PM 32.0 °F 22.1 °F 23.0 °F 69% 30.09 in 10.0 mi SW 13.8 mph - N/A   Mostly Cloudy
12:55 PM 32.0 °F 22.1 °F 23.0 °F 69% 30.09 in 10.0 mi SW 13.8 mph - N/A   Scattered Clouds
1:15 PM 32.0 °F 23.0 °F 21.2 °F 64% 30.08 in 10.0 mi SW 11.5 mph - N/A   Scattered Clouds
1:35 PM 33.8 °F 24.8 °F 23.0 °F 65% 30.08 in 10.0 mi SW 12.7 mph - N/A   Scattered Clouds
1:55 PM 33.8 °F 24.8 °F 23.0 °F 65% 30.08 in 10.0 mi SW 12.7 mph - N/A   Mostly Cloudy
2:15 PM 33.8 °F 24.8 °F 23.0 °F 65% 30.08 in 10.0 mi SW 12.7 mph - N/A   Scattered Clouds
2:35 PM 33.8 °F 23.9 °F 23.0 °F 65% 30.08 in 10.0 mi SW 15.0 mph - N/A   Scattered Clouds
2:55 PM 33.8 °F 23.5 °F 23.0 °F 65% 30.08 in 10.0 mi SW 16.1 mph - N/A   Scattered Clouds
3:15 PM 33.8 °F 24.3 °F 23.0 °F 65% 30.08 in 10.0 mi SW 13.8 mph 17.3 mph N/A   Scattered Clouds
3:35 PM 33.8 °F 24.8 °F 23.0 °F 65% 30.08 in 10.0 mi SW 12.7 mph - N/A   Scattered Clouds
3:55 PM 33.8 °F 23.9 °F 23.0 °F 65% 30.08 in 10.0 mi SSW 15.0 mph - N/A   Scattered Clouds
4:15 PM 32.0 °F 22.5 °F 23.0 °F 69% 30.08 in 10.0 mi SSW 12.7 mph - N/A   Scattered Clouds
4:35 PM 32.0 °F 22.5 °F 23.0 °F 69% 30.09 in 10.0 mi SW 12.7 mph 17.3 mph N/A   Clear
4:55 PM 32.0 °F 22.5 °F 23.0 °F 69% 30.10 in 10.0 mi SW 12.7 mph - N/A   Clear
5:15 PM 32.0 °F 23.0 °F 23.0 °F 69% 30.10 in 10.0 mi SW 11.5 mph - N/A   Clear
5:35 PM 32.0 °F 23.0 °F 23.0 °F 69% 30.10 in 10.0 mi SW 11.5 mph - N/A   Clear
5:55 PM 32.0 °F 24.2 °F 24.8 °F 75% 30.11 in 10.0 mi SW 9.2 mph - N/A   Clear
6:15 PM 32.0 °F 23.6 °F 23.0 °F 69% 30.11 in 10.0 mi SW 10.4 mph - N/A   Clear
6:35 PM 32.0 °F 24.2 °F 23.0 °F 69% 30.11 in 10.0 mi SSW 9.2 mph - N/A   Clear
6:55 PM 30.2 °F 21.9 °F 24.8 °F 80% 30.12 in 10.0 mi SSW 9.2 mph - N/A   Clear
7:15 PM 30.2 °F 21.3 °F 23.0 °F 75% 30.12 in 10.0 mi SSW 10.4 mph - N/A   Clear
7:35 PM 30.2 °F 22.6 °F 24.8 °F 80% 30.12 in 10.0 mi South 8.1 mph - N/A   Clear
7:55 PM 30.2 °F 22.6 °F 24.8 °F 80% 30.12 in 10.0 mi SSW 8.1 mph - N/A   Clear
8:15 PM 30.2 °F 22.6 °F 24.8 °F 80% 30.13 in 10.0 mi SSW 8.1 mph - N/A   Clear
8:35 PM 30.2 °F 22.6 °F 24.8 °F 80% 30.14 in 10.0 mi SSW 8.1 mph - N/A   Clear
8:55 PM 30.2 °F 23.4 °F 23.0 °F 75% 30.15 in 10.0 mi SW 6.9 mph - N/A   Clear
9:15 PM 30.2 °F 22.6 °F 23.0 °F 75% 30.15 in 10.0 mi SSW 8.1 mph - N/A   Clear
9:35 PM 28.4 °F 20.4 °F 23.0 °F 80% 30.16 in 10.0 mi SW 8.1 mph - N/A   Clear
9:55 PM 28.4 °F 21.2 °F 23.0 °F 80% 30.16 in 10.0 mi SW 6.9 mph - N/A   Clear
10:35 PM 28.4 °F 21.2 °F 23.0 °F 80% 30.18 in 10.0 mi SW 6.9 mph - N/A   Clear
10:55 PM 28.4 °F 20.4 °F 23.0 °F 80% 30.19 in 10.0 mi SW 8.1 mph - N/A   Clear
11:15 PM 28.4 °F 19.7 °F 23.0 °F 80% 30.19 in 10.0 mi SSW 9.2 mph - N/A   Clear
11:35 PM 28.4 °F 19.7 °F 23.0 °F 80% 30.20 in 10.0 mi SSW 9.2 mph - N/A   Clear
11:55 PM 28.4 °F 19.7 °F 23.0 °F 80% 30.20 in 10.0 mi SSW 9.2 mph - N/A   Clear